This is the latest recevied weather packets stored in our database for station/object N9EA. If no packets are shown the sender has not sent any weather packets the latest 10 day(s).
| Time | Temp. | Humidity | Pressure | Rain* | Wind** | Luminosity | Snow |
|---|---|---|---|---|---|---|---|
| 1778206394 | 13.33° C | 63% | 1009.7 hPa | 0 mm | - | 0 W/m² | - |
| 1778206091 | 13.33° C | 63% | 1009.6 hPa | 0 mm | - | 0 W/m² | - |
| 1778205789 | 13.33° C | 63% | 1009.6 hPa | 0 mm | - | 0 W/m² | - |
| 1778205485 | 13.89° C | 62% | 1009.5 hPa | 0 mm | - | 0 W/m² | - |
| 1778205183 | 13.89° C | 62% | 1009.6 hPa | 0 mm | - | 0 W/m² | - |
| 1778204880 | 13.89° C | 62% | 1009.5 hPa | 0 mm | - | 0 W/m² | - |
| 1778204577 | 13.89° C | 62% | 1009.3 hPa | 0 mm | - | 0 W/m² | - |
| 1778204272 | 13.89° C | 62% | 1009.4 hPa | 0 mm | - | 0 W/m² | - |
| 1778203969 | 13.89° C | 62% | 1009.3 hPa | 0 mm | - | 0 W/m² | - |
| 1778203666 | 13.89° C | 62% | 1009.5 hPa | 0 mm | - | 0 W/m² | - |
| 1778203363 | 14.44° C | 62% | 1009.2 hPa | 0 mm | - | 0 W/m² | - |
| 1778203061 | 14.44° C | 62% | 1009.1 hPa | 0 mm | - | 0 W/m² | - |
| 1778202758 | 14.44° C | 61% | 1009.3 hPa | 0 mm | - | 1 W/m² | - |
| 1778202455 | 15° C | 60% | 1009.1 hPa | 0 mm | - | 2 W/m² | - |
| 1778202153 | 15° C | 58% | 1009.4 hPa | 0 mm | - | 3 W/m² | - |
| 1778201850 | 15.56° C | 55% | 1009.2 hPa | 0 mm | - | 5 W/m² | - |
| 1778201547 | 16.67° C | 52% | 1009.3 hPa | 0 mm | - | 7 W/m² | - |
| 1778201242 | 16.67° C | 51% | 1009.1 hPa | 0 mm | - | 10 W/m² | - |
| 1778200939 | 16.67° C | 50% | 1009.2 hPa | 0 mm | - | 14 W/m² | - |
| 1778200636 | 16.67° C | 50% | 1009.2 hPa | 0 mm | - | 11 W/m² | - |
| 1778200333 | 16.67° C | 49% | 1009 hPa | 0 mm | - | 11 W/m² | - |
| 1778200029 | 16.67° C | 49% | 1009 hPa | 0 mm | - | 13 W/m² | - |
| 1778199727 | 16.67° C | 48% | 1009 hPa | 0 mm | - | 17 W/m² | - |
| 1778199422 | 16.67° C | 48% | 1008.9 hPa | 0 mm | - | 16 W/m² | - |
| 1778199118 | 17.22° C | 47% | 1009 hPa | 0 mm | - | 25 W/m² | - |
* Rain latest hour (hover to see other rain measurements)
** Current wind speed in m/s (hover to see current wind gust speed)